H1 CPF 2 NER 2024 10 8 9 282 01 glonass137 H2 1705501 9137 42939 2024 10 8 0 0 0 2024 10 11 23 45 0 900 1 1 0 0 0 1 H9 10 0 60591 0.00000 0 -21573171.907 760271.261 -13593430.725 10 0 60591 900.00000 0 -23064769.359 494618.235 -10892639.756 10 0 60591 1800.00000 0 -24231118.722 396163.544 -7980354.292 10 0 60591 2700.00000 0 -25035556.153 421237.224 -4913153.313 10 0 60591 3600.00000 0 -25453031.460 520243.351 -1750597.715 10 0 60591 4500.00000 0 -25471105.977 640003.911 1445926.725 10 0 60591 5400.00000 0 -25090441.174 726253.654 4614400.117 10 0 60591 6300.00000 0 -24324758.230 726179.987 7693369.700 10 0 60591 7200.00000 0 -23200270.896 590900.178 10623138.187 10 0 60591 8100.00000 0 -21754615.979 277771.083 13346916.336 10 0 60591 9000.00000 0 -20035326.531 -247566.255 15811917.716 10 0 60591 9900.00000 0 -18097911.783 -1009493.489 17970374.943 10 0 60591 10800.00000 0 -16003623.900 -2021144.877 19780458.382 10 0 60591 11700.00000 0 -13817004.361 -3283614.098 21207080.303 10 0 60591 12600.00000 0 -11603311.636 -4785672.000 22222569.706 10 0 60591 13500.00000 0 -9425936.427 -6504008.118 22807205.469 10 0 60591 14400.00000 0 -7343911.070 -8403987.229 22949598.061 10 0 60591 15300.00000 0 -5409615.675 -10440890.853 22646912.691 10 0 60591 16200.00000 0 -3666775.411 -12561593.617 21904929.547 10 0 60591 17100.00000 0 -2148831.348 -14706606.342 20737939.598 10 0 60591 18000.00000 0 -877751.954 -16812402.290 19168477.246 10 0 60591 18900.00000 0 136665.778 -18813931.014 17226894.128 10 0 60591 19800.00000 0 896976.859 -20647216.059 14950781.154 10 0 60591 20700.00000 0 1417743.151 -22251928.714 12384248.929 10 0 60591 21600.00000 0 1724677.304 -23573830.504 9577079.455 10 0 60591 22500.00000 0 1853311.907 -24566982.034 6583764.738 10 0 60591 23400.00000 0 1847250.227 -25195625.143 3462450.522 10 0 60591 24300.00000 0 1756072.716 -25435658.570 273805.472 10 0 60591 25200.00000 0 1632988.416 -25275644.158 -2920161.999 10 0 60591 26100.00000 0 1532331.443 -24717300.454 -6057315.665 10 0 60591 27000.00000 0 1507009.596 -23775462.043 -9076607.810 10 0 60591 27900.00000 0 1606014.403 -22477505.720 -11919275.349 10 0 60591 28800.00000 0 1872099.371 -20862267.226 -14529991.462 10 0 60591 29700.00000 0 2339726.152 -18978493.945 -16857949.416 10 0 60591 30600.00000 0 3033366.823 -16882898.655 -18857856.821 10 0 60591 31500.00000 0 3966235.309 -14637896.270 -20490820.460 10 0 60591 32400.00000 0 5139502.578 -12309118.754 -21725104.293 10 0 60591 33300.00000 0 6542029.685 -9962812.486 -22536745.950 10 0 60591 34200.00000 0 8150630.667 -7663227.109 -22910019.998 10 0 60591 35100.00000 0 9930854.926 -5470104.812 -22837739.382 10 0 60591 36000.00000 0 11838256.784 -3436374.493 -22321389.679 10 0 60591 36900.00000 0 13820099.389 -1606146.344 -21371094.057 10 0 60591 37800.00000 0 15817421.949 -13089.512 -20005410.067 10 0 60591 38700.00000 0 17767384.032 1320740.785 -18250962.604 10 0 60591 39600.00000 0 19605789.030 2385579.232 -16141920.457 10 0 60591 40500.00000 0 21269681.413 3184102.996 -13719326.878 10 0 60591 41400.00000 0 22699909.273 3731056.374 -11030297.319 10 0 60591 42300.00000 0 23843545.102 4052365.116 -8127100.163 10 0 60591 43200.00000 0 24656063.681 4183779.432 -5066138.464 10 0 60591 44100.00000 0 25103186.179 4169104.393 -1906852.672 10 0 60591 45000.00000 0 25162313.506 4058093.667 1289434.081 10 0 60591 45900.00000 0 24823489.310 3904096.559 4460705.562 10 0 60591 46800.00000 0 24089852.634 3761558.483 7545453.656 10 0 60591 47700.00000 0 22977561.721 3683480.969 10483867.868 10 0 60591 48600.00000 0 21515192.447 3718948.746 13218990.181 10 0 60591 49500.00000 0 19742636.762 3910828.434 15697813.203 10 0 60591 50400.00000 0 17709547.197 4293735.956 17872300.787 10 0 60591 51300.00000 0 15473392.159 4892358.383 19700312.023 10 0 60591 52200.00000 0 13097202.637 5720201.050 21146411.478 10 0 60591 53100.00000 0 10647103.494 6778812.981 22182550.748 10 0 60591 54000.00000 0 8189731.142 8057523.841 22788608.873 10 0 60591 54900.00000 0 5789643.868 9533704.412 22952781.700 10 0 60591 55800.00000 0 3506831.326 11173540.963 22671812.935 10 0 60591 56700.00000 0 1394425.474 12933292.632 21951062.412 10 0 60591 57600.00000 0 -503292.965 14760980.900 20804409.901 10 0 60591 58500.00000 0 -2152510.543 16598442.165 19253995.637 10 0 60591 59400.00000 0 -3531053.096 18383659.159 17329801.684 10 0 60591 60300.00000 0 -4629065.464 20053274.969 15069081.145 10 0 60591 61200.00000 0 -5449170.910 21545185.330 12515645.161 10 0 60591 62100.00000 0 -6006103.910 22801101.063 9719020.503 10 0 60591 63000.00000 0 -6325832.023 23768973.252 6733493.258 10 0 60591 63900.00000 0 -6444204.049 24405178.897 3617056.669 10 0 60591 64800.00000 0 -6405181.877 24676374.431 430283.424 10 0 60591 65700.00000 0 -6258731.234 24560938.173 -2764855.534 10 0 60591 66600.00000 0 -6058461.254 24049939.792 -5906202.095 10 0 60591 67500.00000 0 -5859113.738 23147594.912 -8932627.668 10 0 60591 68400.00000 0 -5714009.485 21871184.824 -11785230.826 10 0 60591 69300.00000 0 -5672561.080 20250443.787 -14408491.613 10 0 60591 70200.00000 0 -5777958.708 18326439.229 -16751359.164 10 0 60591 71100.00000 0 -6065128.151 16149991.556 -18768250.768 10 0 60591 72000.00000 0 -6559048.437 13779699.844 -20419942.421 10 0 60591 72900.00000 0 -7273501.199 11279656.180 -21674333.356 10 0 60591 73800.00000 0 -8210305.330 8716944.391 -22507069.706 10 0 60591 74700.00000 0 -9359069.846 6159027.773 -22902015.446 10 0 60591 75600.00000 0 -10697475.845 3671134.760 -22851561.846 10 0 60591 76500.00000 0 -12192076.094 1313751.223 -22356769.945 10 0 60591 77400.00000 0 -13799578.916 -859676.595 -21427343.746 10 0 60591 78300.00000 0 -15468562.677 -2804733.715 -20081435.161 10 0 60591 79200.00000 0 -17141549.124 -4487640.773 -18345284.836 10 0 60591 80100.00000 0 -18757348.687 -5886405.609 -16252706.178 10 0 60591 81000.00000 0 -20253579.516 -6991475.710 -13844422.836 10 0 60591 81900.00000 0 -21569254.702 -7805866.053 -11167272.673 10 0 60591 82800.00000 0 -22647329.229 -8344758.902 -8273293.902 10 0 60591 83700.00000 0 -23437099.907 -8634594.231 -5218711.303 10 0 60591 84600.00000 0 -23896357.736 -8711690.781 -2062842.400 10 0 60591 85500.00000 0 -23993202.488 -8620457.346 1133054.910 10 0 60592 0.00000 0 -23707443.624 -8411270.999 4306970.449 10 0 60592 900.00000 0 -23031528.731 -8138112.664 7397344.077 10 0 60592 1800.00000 0 -21970961.176 -7856060.799 10344254.595 10 0 60592 2700.00000 0 -20544189.113 -7618749.024 13090577.992 10 0 60592 3600.00000 0 -18781970.747 -7475895.399 15583088.620 10 0 60592 4500.00000 0 -16726242.175 -7471007.474 17773484.116 10 0 60592 5400.00000 0 -14428534.717 -7639359.743 19619314.611 10 0 60592 6300.00000 0 -11948007.118 -8006328.600 21084798.971 10 0 60592 7200.00000 0 -9349173.785 -8586154.899 22141513.039 10 0 60592 8100.00000 0 -6699422.488 -9381186.371 22768937.281 10 0 60592 9000.00000 0 -4066423.502 -10381632.281 22954853.793 10 0 60592 9900.00000 0 -1515536.523 -11565841.474 22695585.276 10 0 60592 10800.00000 0 892678.273 -12901093.294 21996071.362 10 0 60592 11700.00000 0 3104742.916 -14344869.657 20869780.450 10 0 60592 12600.00000 0 5076244.248 -15846556.423 19338458.125 10 0 60592 13500.00000 0 6773434.909 -17349504.289 17431716.105 10 0 60592 14400.00000 0 8174386.715 -18793364.131 15186468.594 10 0 60592 15300.00000 0 9269648.773 -20116599.861 12646225.863 10 0 60592 16200.00000 0 10062383.196 -21259073.900 9860257.730 10 0 60592 17100.00000 0 10567973.051 -22164596.924 6882642.312 10 0 60592 18000.00000 0 10813119.290 -22783334.344 3771218.029 10 0 60592 18900.00000 0 10834465.008 -23073967.612 586459.031 10 0 60592 19800.00000 0 10676805.533 -23005518.167 -2609703.938 10 0 60592 20700.00000 0 10390960.605 -22558756.033 -5755093.762 10 0 60592 21600.00000 0 10031399.469 -21727132.502 -8788503.902 10 0 60592 22500.00000 0 9653720.342 -20517196.250 -11650897.536 10 0 60592 23400.00000 0 9312092.037 -18948474.285 -14286564.501 10 0 60592 24300.00000 0 9056767.199 -17052821.850 -16644212.629 10 0 60592 25200.00000 0 8931773.444 -14873267.928 -18677971.562 10 0 60592 26100.00000 0 8972881.095 -12462404.393 -20348288.953 10 0 60592 27000.00000 0 9205934.175 -9880386.106 -21622701.435 10 0 60592 27900.00000 0 9645615.804 -7192625.467 -22476465.407 10 0 60592 28800.00000 0 10294700.507 -4467277.709 -22893035.588 10 0 60592 29700.00000 0 11143825.224 -1772621.695 -22864382.479 10 0 60592 30600.00000 0 12171788.811 825554.923 -22391143.042 10 0 60592 31500.00000 0 13346367.437 3266457.709 -21482602.167 10 0 60592 32400.00000 0 14625611.592 5496571.191 -20156505.760 10 0 60592 33300.00000 0 15959570.112 7471634.175 -18438709.471 10 0 60592 34200.00000 0 17292368.681 9158223.563 -16362670.191 10 0 60592 35100.00000 0 18564555.413 10534882.141 -13968790.444 10 0 60592 36000.00000 0 19715614.876 11592744.947 -11303628.594 10 0 60592 36900.00000 0 20686544.840 12335639.826 -8418990.397 10 0 60592 37800.00000 0 21422387.404 12779659.846 -5370919.729 10 0 60592 38700.00000 0 21874608.095 12952227.346 -2218608.274 10 0 60592 39600.00000 0 22003222.925 12890690.617 976754.421 10 0 60592 40500.00000 0 21778584.050 12640513.752 4153168.010 10 0 60592 41400.00000 0 21182749.009 12253137.132 7249022.389 10 0 60592 42300.00000 0 20210376.063 11783599.583 10204289.339 10 0 60592 43200.00000 0 18869107.999 11288023.051 12961681.790 10 0 60592 44100.00000 0 17179428.128 10821066.108 15467758.544 10 0 60592 45000.00000 0 15173994.186 10433453.606 17673953.470 10 0 60592 45900.00000 0 12896477.440 10169686.390 19537509.902 10 0 60592 46800.00000 0 10399954.674 10066027.218 21022302.875 10 0 60592 47700.00000 0 7744919.125 10148847.362 22099534.022 10 0 60592 48600.00000 0 4996991.945 10433403.274 22748286.440 10 0 60592 49500.00000 0 2224427.952 10923094.814 22955929.301 10 0 60592 50400.00000 0 -504482.104 11609236.545 22718364.713 10 0 60592 51300.00000 0 -3124006.399 12471352.401 22040112.061 10 0 60592 52200.00000 0 -5573457.649 13477982.302 20934227.865 10 0 60592 53100.00000 0 -7799467.443 14587968.069 19422062.079 10 0 60592 54000.00000 0 -9757955.768 15752165.906 17532854.649 10 0 60592 54900.00000 0 -11415714.551 16915514.786 15303179.068 10 0 60592 55800.00000 0 -12751539.700 18019374.825 12776242.608 10 0 60592 56700.00000 0 -13756864.785 19004038.092 10001055.765 10 0 60592 57600.00000 0 -14435870.069 19811306.505 7031486.170 10 0 60592 58500.00000 0 -14805062.498 20387028.053 3925214.797 10 0 60592 59400.00000 0 -14892344.618 20683484.034 742614.588 10 0 60592 60300.00000 0 -14735611.915 20661525.537 -2454426.615 10 0 60592 61200.00000 0 -14380938.266 20292367.797 -5603715.352 10 0 60592 62100.00000 0 -13880426.909 19558965.417 -8643969.775 10 0 60592 63000.00000 0 -13289818.582 18456909.021 -11516020.215 10 0 60592 63900.00000 0 -12665958.994 16994804.188 -14163968.699 10 0 60592 64800.00000 0 -12064233.744 15194115.458 -16536283.987 10 0 60592 65700.00000 0 -11536080.187 13088481.003 -18586810.078 10 0 60592 66600.00000 0 -11126682.311 10722526.017 -20275668.046 10 0 60592 67500.00000 0 -10872946.702 8150224.011 -21570033.441 10 0 60592 68400.00000 0 -10801845.554 5432874.229 -22444774.168 10 0 60592 69300.00000 0 -10929196.856 2636779.420 -22882936.661 10 0 60592 70200.00000 0 -11258933.252 -169279.332 -22876071.314 10 0 60592 71100.00000 0 -11782890.222 -2916665.864 -22424391.350 10 0 60592 72000.00000 0 -12481122.246 -5539501.389 -21536762.521 10 0 60592 72900.00000 0 -13322733.311 -7977158.036 -20230524.337 10 0 60592 73800.00000 0 -14267186.424 -10176530.551 -18531146.672 10 0 60592 74700.00000 0 -15266036.698 -12093992.555 -16471728.759 10 0 60592 75600.00000 0 -16265014.710 -13696957.160 -14092350.540 10 0 60592 76500.00000 0 -17206372.185 -14964978.323 -11439289.141 10 0 60592 77400.00000 0 -18031391.002 -15890348.541 -8564115.905 10 0 60592 78300.00000 0 -18682949.682 -16478169.619 -5522691.671 10 0 60592 79200.00000 0 -19108039.140 -16745895.312 -2374079.999 10 0 60592 80100.00000 0 -19260121.640 -16722366.694 820600.313 10 0 60592 81000.00000 0 -19101233.533 -16446382.328 3999361.000 10 0 60592 81900.00000 0 -18603743.211 -15964864.695 7100545.203 10 0 60592 82800.00000 0 -17751690.216 -15330701.092 10064020.113 10 0 60592 83700.00000 0 -16541649.064 -14600350.618 12832338.359 10 0 60592 84600.00000 0 -14983081.240 -13831318.399 15351845.922 10 0 60592 85500.00000 0 -13098160.167 -13079603.480 17573715.529 10 0 60593 0.00000 0 -10921076.045 -12397227.638 19454885.996 10 0 60593 900.00000 0 -8496847.514 -11829948.338 20958891.024 10 0 60593 1800.00000 0 -5879691.568 -11415252.419 22056559.692 10 0 60593 2700.00000 0 -3131014.456 -11180713.119 22726579.187 10 0 60593 3600.00000 0 -317108.466 -11142780.060 22955906.839 10 0 60593 4500.00000 0 2493352.358 -11306052.533 22740024.864 10 0 60593 5400.00000 0 5231914.985 -11663066.795 22083032.735 10 0 60593 6300.00000 0 7832942.106 -12194606.806 20997575.089 10 0 60593 7200.00000 0 10236092.340 -12870526.081 19504605.911 10 0 60593 8100.00000 0 12388584.000 -13651047.040 17632992.715 10 0 60593 9000.00000 0 14247149.068 -14488484.220 15418967.284 10 0 60593 9900.00000 0 15779596.541 -15329319.782 12905432.540 10 0 60593 10800.00000 0 16965920.244 -16116544.605 10141137.938 10 0 60593 11700.00000 0 17798904.927 -16792166.703 7179738.515 10 0 60593 12600.00000 0 18284205.429 -17299781.265 4078755.363 10 0 60593 13500.00000 0 18439895.586 -17587093.353 898457.475 10 0 60593 14400.00000 0 18295506.027 -17608285.841 -2299313.168 10 0 60593 15300.00000 0 17890591.781 -17326131.544 -5452349.861 10 0 60593 16200.00000 0 17272890.607 -16713758.841 -8499298.565 10 0 60593 17100.00000 0 16496150.502 -15755994.779 -11380859.836 10 0 60593 18000.00000 0 15617718.997 -14450227.441 -14040950.865 10 0 60593 18900.00000 0 14695996.979 -12806749.818 -16427804.132 10 0 60593 19800.00000 0 13787865.540 -10848569.389 -18494980.582 10 0 60593 20700.00000 0 12946195.315 -8610690.438 -20202277.037 10 0 60593 21600.00000 0 12217544.087 -6138898.354 -21516509.977 10 0 60593 22500.00000 0 11640140.147 -3488096.200 -22412160.476 10 0 60593 23400.00000 0 11242236.585 -720262.652 -22871867.945 10 0 60593 24300.00000 0 11040905.685 2097883.850 -22886763.530 10 0 60593 25200.00000 0 11041323.846 4897417.719 -22456637.153 10 0 60593 26100.00000 0 11236576.573 7609830.511 -21589935.457 10 0 60593 27000.00000 0 11607991.083 10169638.166 -20303591.180 10 0 60593 27900.00000 0 12125981.807 12516863.344 -18622687.675 10 0 60593 28800.00000 0 12751372.475 14599290.357 -16579965.391 10 0 60593 29700.00000 0 13437138.445 16374399.763 -14215180.184 10 0 60593 30600.00000 0 14130495.272 17810903.228 -11574326.073 10 0 60593 31500.00000 0 14775244.987 18889815.890 -8708737.755 10 0 60593 32400.00000 0 15314280.762 19605022.966 -5674090.463 10 0 60593 33300.00000 0 15692144.027 19963318.413 -2529316.786 10 0 60593 34200.00000 0 15857525.917 19983915.613 664538.303 10 0 60593 35100.00000 0 15765607.413 19697452.097 3845501.798 10 0 60593 36000.00000 0 15380139.341 19144531.437 6951873.292 10 0 60593 36900.00000 0 14675174.453 18373864.699 9923418.521 10 0 60593 37800.00000 0 13636378.448 17440090.408 12702532.791 10 0 60593 38700.00000 0 12261864.503 16401365.171 15235352.033 10 0 60593 39600.00000 0 10562515.784 15316826.437 17472790.348 10 0 60593 40500.00000 0 8561781.752 14244033.840 19371484.574 10 0 60593 41400.00000 0 6294955.823 13236496.241 20894628.328 10 0 60593 42300.00000 0 3807963.444 12341387.667 22012680.092 10 0 60593 43200.00000 0 1155709.693 11597547.384 22703932.368 10 0 60593 44100.00000 0 -1599946.371 11033847.309 22954931.452 10 0 60593 45000.00000 0 -4392508.004 10667994.777 22760740.030 10 0 60593 45900.00000 0 -7153353.221 10505820.559 22125037.547 10 0 60593 46800.00000 0 -9814340.634 10541081.979 21060056.128 10 0 60593 47700.00000 0 -12310401.893 10755789.635 19586352.660 10 0 60593 48600.00000 0 -14582014.210 11121044.486 17732420.609 10 0 60593 49500.00000 0 -16577451.029 11598350.711 15534148.020 10 0 60593 50400.00000 0 -18254717.687 12141349.807 13034131.092 10 0 60593 51300.00000 0 -19583091.615 12697903.394 10280855.625 10 0 60593 52200.00000 0 -20544202.815 13212437.306 7327761.328 10 0 60593 53100.00000 0 -21132609.314 13628448.077 4232206.605 10 0 60593 54000.00000 0 -21355843.325 13891065.608 1054353.712 10 0 60593 54900.00000 0 -21233926.154 13949563.048 -2144003.949 10 0 60593 55800.00000 0 -20798372.229 13759706.569 -5300649.062 10 0 60593 56700.00000 0 -20090724.572 13285844.393 -8354157.949 10 0 60593 57600.00000 0 -19160683.996 12502645.381 -11245103.819 10 0 60593 58500.00000 0 -18063911.510 11396412.007 -13917221.298 10 0 60593 59400.00000 0 -16859597.473 9965910.815 -16318508.678 10 0 60593 60300.00000 0 -15607900.838 8222683.895 -18402245.691 10 0 60593 61200.00000 0 -14367367.281 6190827.019 -20127906.476 10 0 60593 62100.00000 0 -13192435.604 3906242.708 -21461949.701 10 0 60593 63000.00000 0 -12131137.821 1415398.659 -22378470.543 10 0 60593 63900.00000 0 -11223089.843 -1226357.152 -22859702.001 10 0 60593 64800.00000 0 -10497857.064 -3956854.833 -22896356.253 10 0 60593 65700.00000 0 -9973763.074 -6709448.989 -22487799.870 10 0 60593 66600.00000 0 -9657190.867 -9415555.779 -21642060.017 10 0 60593 67500.00000 0 -9542404.944 -12007275.410 -20375661.985 10 0 60593 68400.00000 0 -9611900.777 -14419991.421 -18713301.623 10 0 60593 69300.00000 0 -9837265.860 -16594839.137 -16687359.352 10 0 60593 70200.00000 0 -10180515.004 -18480941.246 -14337265.470 10 0 60593 71100.00000 0 -10595842.717 -20037318.264 -11708729.236 10 0 60593 72000.00000 0 -11031717.912 -21234395.204 -8852846.906 10 0 60593 72900.00000 0 -11433231.899 -22055042.727 -5825106.217 10 0 60593 73800.00000 0 -11744599.998 -22495110.554 -2684306.807 10 0 60593 74700.00000 0 -11911710.748 -22563432.117 508582.229 10 0 60593 75600.00000 0 -11884614.743 -22281301.609 3691605.294 10 0 60593 76500.00000 0 -11619847.822 -21681446.599 6803020.677 10 0 60593 77400.00000 0 -11082490.379 -20806540.419 9782495.008 10 0 60593 78300.00000 0 -10247875.772 -19707317.628 12572268.701 10 0 60593 79200.00000 0 -9102875.568 -18440372.225 15118270.095 10 0 60593 80100.00000 0 -7646707.173 -17065731.292 17371157.086 10 0 60593 81000.00000 0 -5891229.276 -15644305.778 19287266.690 10 0 60593 81900.00000 0 -3860711.834 -14235324.949 20829454.902 10 0 60593 82800.00000 0 -1591089.114 -12893861.425 21967811.280 10 0 60593 83700.00000 0 871274.431 -11668549.707 22680235.187 10 0 60593 84600.00000 0 3471255.616 -10599592.868 22952863.100 10 0 60593 85500.00000 0 6147013.415 -9717140.113 22780339.028 10 0 60594 0.00000 0 8832315.974 -9040102.511 22165922.970 10 0 60594 900.00000 0 11459060.178 -8575455.714 21121434.587 10 0 60594 1800.00000 0 13959877.013 -8318059.574 19667033.537 10 0 60594 2700.00000 0 16270720.487 -8251001.020 17830838.743 10 0 60594 3600.00000 0 18333329.802 -8346446.990 15648393.669 10 0 60594 4500.00000 0 20097464.284 -8566971.473 13161986.599 10 0 60594 5400.00000 0 21522817.828 -8867301.198 10419838.114 10 0 60594 6300.00000 0 22580532.984 -9196406.595 7475170.632 10 0 60594 7200.00000 0 23254251.062 -9499849.816 4385177.547 10 0 60594 8100.00000 0 23540653.897 -9722290.291 1209911.723 10 0 60594 9000.00000 0 23449474.217 -9810041.260 -1988884.940 10 0 60594 9900.00000 0 23002973.901 -9713568.117 -5148987.613 10 0 60594 10800.00000 0 22234912.205 -9389821.670 -8208906.117 10 0 60594 11700.00000 0 21189047.472 -8804306.113 -11109089.412 10 0 60594 12600.00000 0 19917235.946 -7932792.722 -13793092.536 10 0 60594 13500.00000 0 18477208.335 -6762605.305 -16208682.370 10 0 60594 14400.00000 0 16930118.440 -5293421.551 -18308859.991 10 0 60594 15300.00000 0 15337967.772 -3537555.194 -20052779.142 10 0 60594 16200.00000 0 13761015.125 -1519705.887 -21406542.701 10 0 60594 17100.00000 0 12255280.367 723813.763 -22343861.655 10 0 60594 18000.00000 0 10870247.502 3146342.396 -22846563.971 10 0 60594 18900.00000 0 9646863.217 5692573.131 -22904943.876 10 0 60594 19800.00000 0 8615914.414 8300625.217 -22517945.234 10 0 60594 20700.00000 0 7796851.972 10904398.092 -21693175.981 10 0 60594 21600.00000 0 7197109.031 13436110.147 -20446753.804 10 0 60594 22500.00000 0 6811941.123 15828916.818 -18802986.491 10 0 60594 23400.00000 0 6624793.508 18019499.391 -16793893.474 10 0 60594 24300.00000 0 6608178.863 19950517.173 -14458578.120 10 0 60594 25200.00000 0 6725027.061 21572821.454 -11842463.148 10 0 60594 26100.00000 0 6930448.947 22847339.606 -8996404.204 10 0 60594 27000.00000 0 7173838.692 23746551.533 -5975698.982 10 0 60594 27900.00000 0 7401225.123 24255497.727 -2839011.303 10 0 60594 28800.00000 0 7557772.050 24372277.810 352768.737 10 0 60594 29700.00000 0 7590321.491 24108019.773 3537706.233 10 0 60594 30600.00000 0 7449871.970 23486322.262 6654021.526 10 0 60594 31500.00000 0 7093886.985 22542194.262 9641285.447 10 0 60594 32400.00000 0 6488335.992 21320537.422 12441586.706 10 0 60594 33300.00000 0 5609381.605 19874235.201 15000649.042 10 0 60594 34200.00000 0 4444641.611 18261929.219 17268876.880 10 0 60594 35100.00000 0 2993972.221 16545575.887 19202309.862 10 0 60594 36000.00000 0 1269738.902 14787885.313 20763468.461 10 0 60594 36900.00000 0 -703437.548 13049748.982 21922075.048 10 0 60594 37800.00000 0 -2889450.374 11387762.989 22655637.173 10 0 60594 38700.00000 0 -5241961.090 9851949.340 22949882.358 10 0 60594 39600.00000 0 -7706087.979 8483769.607 22799036.315 10 0 60594 40500.00000 0 -10220460.323 7314513.006 22205939.288 10 0 60594 41400.00000 0 -12719554.689 6364125.497 21181997.990 10 0 60594 42300.00000 0 -15136217.683 5640528.333 19746973.512 10 0 60594 43200.00000 0 -17404271.600 5139454.247 17928608.439 10 0 60594 44100.00000 0 -19461095.600 4844807.962 15762099.385 10 0 60594 45000.00000 0 -21250075.465 4729535.925 13289424.053 10 0 60594 45900.00000 0 -22722820.097 4756968.756 10558534.856 10 0 60594 46800.00000 0 -23841052.095 4882579.886 7622433.811 10 0 60594 47700.00000 0 -24578092.883 5056086.148 4538146.117 10 0 60594 48600.00000 0 -24919879.802 5223801.310 1365612.100 10 0 60594 49500.00000 0 -24865471.727 5331142.437 -1833480.889 10 0 60594 50400.00000 0 -24427021.427 5325182.130 -4996903.400 10 0 60594 51300.00000 0 -23629215.586 5157137.508 -8063101.489 10 0 60594 52200.00000 0 -22508205.849 4784689.186 -10972402.424 10 0 60594 53100.00000 0 -21110075.981 4174030.673 -13668183.978 10 0 60594 54000.00000 0 -19488909.934 3301559.894 -16097983.701 10 0 60594 54900.00000 0 -17704542.572 2155139.896 -18214525.787 10 0 60594 55800.00000 0 -15820088.217 734874.130 -19976645.001 10 0 60594 56700.00000 0 -13899351.346 -946637.633 -21350089.435 10 0 60594 57600.00000 0 -12004228.506 -2864574.602 -22308186.464 10 0 60594 58500.00000 0 -10192210.594 -4982690.848 -22832359.161 10 0 60594 59400.00000 0 -8514090.021 -7254599.153 -22912483.519 10 0 60594 60300.00000 0 -7011968.342 -9625489.720 -22547080.027 10 0 60594 61200.00000 0 -5717646.984 -12034212.372 -21743336.381 10 0 60594 62100.00000 0 -4651467.357 -14415635.722 -20516961.363 10 0 60594 63000.00000 0 -3821647.555 -16703185.231 -18891873.157 10 0 60594 63900.00000 0 -3224141.949 -18831454.618 -16899728.477 10 0 60594 64800.00000 0 -2843027.896 -20738782.040 -14579301.901 10 0 60594 65700.00000 0 -2651401.707 -22369683.993 -11975727.664 10 0 60594 66600.00000 0 -2612744.608 -23677045.743 -9139618.826 10 0 60594 67500.00000 0 -2682699.757 -24623977.390 -6126081.058 10 0 60594 68400.00000 0 -2811184.190 -25185258.606 -2993640.395 10 0 60594 69300.00000 0 -2944745.538 -25348312.319 196894.013 10 0 60594 70200.00000 0 -3029063.257 -25113667.414 3383609.911 10 0 60594 71100.00000 0 -3011488.135 -24494891.835 6504691.650 10 0 60594 72000.00000 0 -2843512.410 -23517999.686 9499616.264 10 0 60594 72900.00000 0 -2483065.953 -22220357.795 12310322.772 10 0 60594 73800.00000 0 -1896541.394 -20649138.035 14882332.326 10 0 60594 74700.00000 0 -1060462.598 -18859380.412 17165797.850 10 0 60594 75600.00000 0 37274.113 -16911747.924 19116463.460 10 0 60594 76500.00000 0 1396638.716 -14870066.704 20696515.790 10 0 60594 77400.00000 0 3005218.966 -12798753.600 21875311.468 10 0 60594 78300.00000 0 4838496.093 -10760237.718 22629967.398 10 0 60594 79200.00000 0 6860634.566 -8812482.470 22945803.008 10 0 60594 80100.00000 0 9025754.498 -7006710.391 22816626.254 10 0 60594 81000.00000 0 11279635.361 -5385424.513 22244857.928 10 0 60594 81900.00000 0 13561781.779 -3980807.837 21241491.621 10 0 60594 82800.00000 0 15807767.003 -2813566.894 19825889.541 10 0 60594 83700.00000 0 17951757.903 -1892267.080 18025417.318 10 0 60594 84600.00000 0 19929117.447 -1213187.124 15874923.831 10 0 60594 85500.00000 0 21678976.843 -760698.529 13416075.050 99